Showing default

OPS 9313 (IDSCS 3), 2217

Orbit data source: Space-Track

OPS 9313 (IDSCS 3), 2217 is a payload satellite owned by USAF SSD (US) in GEO that was launched on Thu, 16 Jun 1966 UTC via a TITAN IIIC launch vehicle from the Air Force Eastern Test Range (AFETR). Payloads include a variety of satellites, spacecraft, and rockets equipped with specific instruments for various scientific and technological missions. These include communications satellites like Starlink; space stations such as the ISS; scientific satellites like the Hubble; Earth observation satellites from companies like Planet Labs, Umbra, and HawkEye 360; GPS; miniature CubeSats for education and research; and military/defense satellites.

Loading next visibility...
OPS 9313 (IDSCS 3) details
Identifier
2217, 1966-053D
Orbit
GEO
Last TLE update6 days ago
Origin
Flag of USUSAF SSD (US)
ManufacturerPhilco-Ford WDL
MissionNon-operational Defense Communications
Bus & MotorIDCSP, Unknown motor
Mass45 kg wet, 45 kg dry
Launch date (UTC)
1966-06-16 (59 years ago)
Launch vehicle
TITAN IIIC
Launch site
Air Force Eastern Test Range (AFETR)
Object type
Payload
Rocket body
Debris
Shape & HBRIco Poly, 0.9 m
Radar Cross Section0.926 m², Medium (>0.1 m² and < 1m²)

Expand to show TLE details & history

TLE from 6 days ago
0 OPS 9313 (IDSCS 3)
1 02217U 66053D   25008.42672918 -.00000056  00000-0  00000-0 0  9998
2 02217   7.6549  48.8850 0037211 197.1234 162.7280  1.07753299133869
Epoch: 2025-01-08T10:14Z
Definitive object data (Epoch: 2025-01-08T10:14:29.401Z)
Latitude
Longitude147.02877°
Altitude33,953.884 km
Speed3.138 km/s
True Right ascension03h 15m 29s
True Declination0° 00' 00"
Sunlit
Object was in daylight at TLE epoch
Visualization TLE readout
Latitude5.02013°
Longitude-73.52869°
Altitude33,731.547 km
Speed3.156 km/s
Apparent Right ascension12h 57m 00s
Apparent Declination0° 52' 18"
Sunlit
Object is in daylight
Visualization observer readout
Local Sidereal Time09:06:46
Azimuth112.863° SE
Elevation23.679°
Doppler factor1
Orbital elements
Apogee altitude33,962.211 km
Perigee altitude33,663.103 km
Semi-major axis40,190.794 km
Eccentricity0.0037211
Inclination7.6549°
RAAN48.885°
Arg. of periapsis197.1234°
True anomaly162.85404°
Mean anomaly162.728°
Eccentric anomaly162.79108°
Mean motion0.26937 °/min
BSTARUnknown
Orbital period1336.44 mins
Loading historical data...
2217 neighbors
Authenticating...
Loading maneuver chart data...
Loading historical data...
Loading historical data...
Loading historical data...
Loading historical data...
Loading historical data...
Loading historical data...
Loading historical data...

OPS 9313 (IDSCS 3) Visibility forecast

Observer location: undefined°, undefined

Span
Click to sort rows by Start time (UTC) header in descending order
Start Az.
Max El. time (UTC)
Max El. Az.
Max El.
End time (UTC)
End Az.
356 mins2025-01-14 08:30:59.354Z112.879° SE2025-01-14 08:30:59.354Z112.879° SE21.874°2025-01-14 14:26:59.354Z116.308° SE
|